Miscellaneous Local Product
Issued by NWS Hastings, NE

Home | Current Version | Previous Version | Graphics & Text | Print | Product List | Glossary On
Versions: 1 2 3 4 5 6 7 8 9 10 11 12 13 14 15 16 17 18 19 20 21 22 23 24 25 26 27 28 29 30 31 32 33 34 35 36 37 38 39 40 41 42 43 44 45 46 47 48 49 50
000
AXUS43 KGID 240002
MISGRI

GID CWA HOURLY WEATHER ROUNDUP
NATIONAL WEATHER SERVICE HASTINGS NE
700 PM CDT WED JUL 23 2014

NOTE: "FAIR" INDICATES FEW OR NO CLOUDS BELOW 12,000 FEET WITH NO
SIGNIFICANT WEATHER AND/OR OBSTRUCTIONS TO VISIBILITY.

...SOUTH CENTRAL NEBRASKA...

CITY           SKY/WX    TMP DP  RH WIND       PRES   REMARKS
GRAND ISLAND   SUNNY     81  59  47 E10       30.17F
HASTINGS       SUNNY     81  57  43 E10       30.17S
KEARNEY        SUNNY     81  63  54 E10       30.19S
ORD            SUNNY     81  59  47 E9        30.16F
YORK           SUNNY     81  61  50 NE12      30.16S
AURORA         SUNNY     81  62  52 E7        30.17S
LEXINGTON      SUNNY     81  62  52 SE10      30.18S
HOLDREGE       SUNNY     80  63  55 E8        30.18F
HEBRON         SUNNY     83  56  39 E8        30.14R

...NEBRASKA PANHANDLE...

CITY           SKY/WX    TMP DP  RH WIND       PRES   REMARKS
CHADRON        SUNNY     94  64  37 SE20      30.06F HX  95
ALLIANCE       SUNNY     93  61  34 S16       30.13F HX  93
SCOTTSBLUFF    MOSUNNY   89  66  46 S7        30.13F HX  91
SIDNEY         SUNNY     95  56  26 S17G24    30.17F HX  93

...WESTERN AND NORTH CENTRAL NEBRASKA...

CITY           SKY/WX    TMP DP  RH WIND       PRES   REMARKS
VALENTINE      SUNNY     86  58  38 E16       30.15F
AINSWORTH      SUNNY     82  55  39 SE13G18   30.17F
ONEILL         SUNNY     81  52  36 E10       30.18F
BROKEN BOW     SUNNY     80  60  50 SE12G22   30.18F
IMPERIAL       SUNNY     85  65  51 SE18      30.15R
NORTH PLATTE   SUNNY     80  64  58 SE18      30.15F
MCCOOK         SUNNY     81  67  62 E16       30.15F

...EASTERN NEBRASKA...

CITY           SKY/WX    TMP DP  RH WIND       PRES   REMARKS
NORFOLK        SUNNY     81  58  45 E9        30.16F
SO SIOUX CITY  SUNNY     81  58  45 NE7       30.15F
TEKAMAH        SUNNY     82  60  47 E9        30.15F
COLUMBUS       SUNNY     81  57  44 E6        30.16S
ALBION         SUNNY     80  54  40 E6        30.18S
OMAHA EPPLEY   SUNNY     83  59  44 NE9       30.14F
OFFUTT AFB     SUNNY     83  63  51 NE3       30.13F
MILLARD        SUNNY     83  59  45 N3        30.13F
LINCOLN        SUNNY     85  58  39 NE10      30.13F
NEBRASKA CITY  SUNNY     81  59  48 NE8       30.13S
BEATRICE       SUNNY     82  63  51 E7        30.12F
FALLS CITY     SUNNY     83  65  54 NE6       30.11S

...NORTHERN KANSAS...

CITY           SKY/WX    TMP DP  RH WIND       PRES   REMARKS
GOODLAND       SUNNY     90  60  36 S14       30.18F
HILL CITY      SUNNY     86  65  49 E12       30.14F
HAYS           SUNNY     84  63  48 E14       30.12F
RUSSELL        SUNNY     86  64  47 E9        30.10F
CONCORDIA      SUNNY     85  60  42 E9        30.11F
SALINA         SUNNY     91  60  35 E6        30.08F HX  90
TOPEKA         SUNNY     87  66  49 NE12      30.09R



USA.gov is the U.S. government's official web portal to all federal, state and local government web resources and services.